Regional Weather Roundup
Issued by NWS Midland/Odessa, TX

Home | Current Version | Previous Version | Text Only | Print | Product List | Glossary On
Versions: 1 2 3 4 5 6 7 8 9 10 11 12 13 14 15 16 17 18 19 20 21 22 23 24 25 26 27 28 29 30 31 32 33 34 35 36 37 38 39 40 41 42 43 44 45 46 47 48 49 50
000
ASUS44 KMAF 242010
RWRMAF
MIDLAND AREA WEATHER ROUNDUP
NATIONAL WEATHER SERVICE MIDLAND TX
300 PM CDT FRI OCT 24 2014

...IN SOUTHWEST TEXAS AND SOUTHEAST NEW MEXICO...

CITY           SKY/WX    TMP DP  RH WIND       PRES   REMARKS
ALPINE         SUNNY     79  44  28 SW5       30.28F
ANDREWS        FAIR      84  51  32 SW12      30.15F
ARTESIA        NOT AVBL
BIG SPRING     SUNNY     84  49  29 S7        30.14F
CARLSBAD       SUNNY     81  55  40 SE8       30.14F
DRYDEN           N/A     82  61  48 VRB7      30.12F
FORT STOCKTON  SUNNY     85  49  28 E5        30.14F
GUAD PASS      SUNNY     77  46  33 SW17G25   30.29F
HOBBS          SUNNY     82  46  28 S9        30.18F
MARFA          SUNNY     77  43  29 SE6       30.28F
MIDLAND AIRPK  SUNNY     86  46  24 S6        30.14F
MIDLAND INTL   SUNNY     86  48  26 SW9       30.13F
ODESSA         SUNNY     84  48  28 SW8       30.15F
PECOS          SUNNY     84  53  33 S6        30.12F
PRESIDIO       FAIR      83  53  34 S7        30.15F
SEMINOLE       SUNNY     83  51  32 S8        30.16F
SNYDER         SUNNY     79  63  57 S10       30.13F
WINK           SUNNY     83  51  33 SW9       30.12F
$$
...OTHER STATIONS IN TEXAS...

CITY           SKY/WX    TMP DP  RH WIND       PRES   REMARKS
ABILENE        SUNNY     85  56  37 SW14      30.10F
AMARILLO       SUNNY     85  41  21 SW9G21    30.12F
AUSTIN         MOSUNNY   83  61  47 CALM      30.10F
BROWNSVILLE    SUNNY     84  65  52 NE9       30.08F
CORPUS CHRISTI SUNNY     84  59  42 E8        30.09F
DALLAS FTW     MOSUNNY   82  60  47 SW5       30.08F
DEL RIO        SUNNY     83  62  49 SE8       30.10F
EL PASO        SUNNY     81  45  28 CALM      30.19F
HOUSTON INT    SUNNY     80  54  40 NE6       30.10F
LUBBOCK        MOSUNNY   84  53  34 SW15      30.12F
SAN ANGELO     SUNNY     87  53  31 S10       30.11F
SAN ANTONIO    MOSUNNY   85  58  39 W5        30.11F
WACO           SUNNY     82  59  45 SE8       30.10F
WICHITA FALLS  NOT AVBL
$$
...OTHER LOCATIONS IN NEW MEXICO...

CITY           SKY/WX    TMP DP  RH WIND       PRES   REMARKS
ALAMAGORDO     NOT AVBL
ALBUQUERQUE    SUNNY     74  32  21 CALM      30.28F
CANNON AFB     SUNNY     81  39  22 W15       30.16F
CLOVIS         SUNNY     82  37  20 SW15G21   30.18F
HOLLOMAN AFB   SUNNY     78  48  34 CALM      30.20F
ROSWELL        SUNNY     82  50  32 SE9       30.15F
RUIDOSO        SUNNY     72  39  30 N10G20    30.38F
SANTA FE       SUNNY     74  23  15 N6        30.30F
TRUTH OR CONSE SUNNY     76  44  32 SW6       30.24F
TUCUMCARI      SUNNY     85  35  16 S9        30.11F
$$



USA.gov is the U.S. government's official web portal to all federal, state and local government web resources and services.